Date String (YYYY-MM-DD hh:mm:ss) UTC,Instrument flags,absolute air pressure of the measurement (hPa),sample flow rate (lpm),inlet stack bypass flow (lpm),air temperature of the measurement (°C),ambient temperature measured by the external sensor (°C),aerosol sample conditioner tube jacket temperature (°C),OPC LED temperature (°C),internal box temperature (°C),relative humidity of the measurement (%),span deviation,mass concentration of particles derived from Lorenz-Mie calculation of OPC scattering (μg/m³),mass concentration of particles derived from Lorenz-Mie calculation of OPC scattering (μg/m³),mass concentration of particles derived from Lorenz-Mie calculation of OPC scattering (μg/m³)
DateTimeUTC,F1_M11,P_M11,Q1_M11,Q2_M11,T1_M11,T2_M11,T3_M11,T4_M11,T5_M11,U1_M11,ZSPAN_M11,X0_M11,X2_M11,X1_M11
2024-04-06 05:00:00,SystemResetWarning,0813.5,5.00,000.00,024.9,023.8,000.0,033.6,026.7,011.4,0000.0,0020.20,0004.01,0001.61
2024-04-06 05:01:00,SystemResetWarning,0813.5,5.00,000.00,024.9,023.8,000.0,033.6,026.7,011.4,0000.0,0020.04,0004.02,0001.61
2024-04-06 05:02:00,SystemResetWarning,0813.4,5.00,000.00,024.9,023.8,000.0,033.6,026.7,011.4,0000.0,0019.61,0004.01,0001.59
2024-04-06 05:03:00,SystemResetWarning,0813.4,4.99,000.00,024.9,023.8,000.0,033.6,026.7,011.4,0000.0,0019.53,0004.06,0001.59
2024-04-06 05:04:00,SystemResetWarning,0813.4,5.00,000.00,024.9,023.8,000.0,033.5,026.7,011.4,0000.0,0019.17,0004.04,0001.59
2024-04-06 05:05:00,SystemResetWarning,0813.5,5.00,000.00,024.9,023.7,000.0,033.5,026.7,011.5,0000.0,0017.63,0004.01,0001.58
2024-04-06 05:06:00,SystemResetWarning,0813.5,5.01,000.00,024.9,023.7,000.0,033.5,026.6,011.3,0000.0,0017.62,0004.00,0001.60
2024-04-06 05:07:00,SystemResetWarning,0813.5,5.00,000.00,024.8,023.7,000.0,033.5,026.6,011.4,0000.0,0016.19,0004.01,0001.60
2024-04-06 05:08:00,SystemResetWarning,0813.5,4.99,000.00,024.8,023.7,000.0,033.5,026.6,011.5,0000.0,0015.19,0003.92,0001.59
2024-04-06 05:09:00,SystemResetWarning,0813.5,4.99,000.00,024.8,023.7,000.0,033.5,026.6,011.4,0000.0,0015.42,0004.03,0001.59
2024-04-06 05:10:00,SystemResetWarning,0813.5,5.00,000.00,024.8,023.7,000.0,033.5,026.6,011.5,0000.0,0017.45,0004.00,0001.57
2024-04-06 05:11:00,SystemResetWarning,0813.5,5.01,000.00,024.8,023.7,000.0,033.5,026.6,011.7,0000.0,0017.38,0003.97,0001.57
2024-04-06 05:12:00,SystemResetWarning,0813.4,5.01,000.00,024.8,023.7,000.0,033.5,026.6,011.6,0000.0,0017.60,0003.95,0001.55
2024-04-06 05:13:00,SystemResetWarning,0813.4,5.00,000.00,024.8,023.7,000.0,033.5,026.6,011.7,0000.0,0017.43,0003.93,0001.56
2024-04-06 05:14:00,SystemResetWarning,0813.4,4.99,000.00,024.8,023.7,000.0,033.5,026.6,011.7,0000.0,0017.30,0003.87,0001.55
2024-04-06 05:15:00,SystemResetWarning,0813.4,4.99,000.00,024.8,023.7,000.0,033.5,026.6,011.8,0000.0,0017.36,0003.88,0001.55
2024-04-06 05:16:00,SystemResetWarning,0813.4,5.00,000.00,024.8,023.7,000.0,033.5,026.6,011.8,0000.0,0018.70,0003.86,0001.52
2024-04-06 05:17:00,SystemResetWarning,0813.4,5.01,000.00,024.8,023.7,000.0,033.5,026.6,011.9,0000.0,0017.79,0003.86,0001.52
2024-04-06 05:18:00,SystemResetWarning,0813.4,5.01,000.00,024.8,023.7,000.0,033.4,026.6,011.9,0000.0,0017.56,0003.83,0001.51
2024-04-06 05:19:00,SystemResetWarning,0813.4,4.99,000.00,024.8,023.7,000.0,033.4,026.6,011.9,0000.0,0019.42,0003.86,0001.52
2024-04-06 05:20:00,SystemResetWarning,0813.4,4.99,000.00,024.8,023.6,000.0,033.4,026.6,011.8,0000.0,0019.55,0003.75,0001.52
2024-04-06 05:21:00,SystemResetWarning,0813.4,5.00,000.00,024.7,023.6,000.0,033.4,026.5,012.0,0000.0,0017.78,0003.77,0001.54
2024-04-06 05:22:00,SystemResetWarning,0813.4,5.00,000.00,024.7,023.6,000.0,033.4,026.6,012.0,0000.0,0017.43,0003.79,0001.55
2024-04-06 05:23:00,SystemResetWarning,0813.3,5.00,000.00,024.7,023.6,000.0,033.4,026.6,011.9,0000.0,0017.84,0003.78,0001.56
2024-04-06 05:24:00,SystemResetWarning,0813.3,5.00,000.00,024.7,023.6,000.0,033.4,026.6,011.9,0000.0,0017.62,0003.79,0001.55
2024-04-06 05:25:00,SystemResetWarning,0813.3,5.00,000.00,024.7,023.6,000.0,033.4,026.5,012.0,0000.0,0017.80,0003.82,0001.56
2024-04-06 05:26:00,SystemResetWarning,0813.3,5.00,000.00,024.7,023.6,000.0,033.4,026.5,012.1,0000.0,0017.63,0003.89,0001.57
2024-04-06 05:27:00,SystemResetWarning,0813.3,5.00,000.00,024.7,023.6,000.0,033.4,026.5,012.0,0000.0,0016.35,0003.87,0001.59
2024-04-06 05:28:00,SystemResetWarning,0813.3,5.00,000.00,024.7,023.6,000.0,033.4,026.5,012.2,0000.0,0016.09,0003.82,0001.58
2024-04-06 05:29:00,SystemResetWarning,0813.3,5.00,000.00,024.7,023.5,000.0,033.4,026.5,012.1,0000.0,0015.75,0003.81,0001.58
2024-04-06 05:30:00,SystemResetWarning,0813.2,5.00,000.00,024.7,023.6,000.0,033.4,026.5,012.1,0000.0,0014.58,0003.84,0001.59
2024-04-06 05:31:00,SystemResetWarning,0813.2,5.01,000.00,024.7,023.5,000.0,033.4,026.5,012.2,0000.0,0014.24,0003.86,0001.60
2024-04-06 05:32:00,SystemResetWarning,0813.2,5.00,000.00,024.7,023.5,000.0,033.3,026.5,012.2,0000.0,0014.08,0003.84,0001.58
2024-04-06 05:33:00,SystemResetWarning,0813.2,5.00,000.00,024.7,023.5,000.0,033.3,026.5,012.2,0000.0,0015.38,0003.81,0001.57
2024-04-06 05:34:00,SystemResetWarning,0813.2,5.00,000.00,024.6,023.5,000.0,033.3,026.5,012.2,0000.0,0015.44,0003.84,0001.57
2024-04-06 05:35:00,SystemResetWarning,0813.1,5.00,000.00,024.6,023.5,000.0,033.3,026.4,012.2,0000.0,0014.97,0003.86,0001.56
2024-04-06 05:36:00,SystemResetWarning,0813.1,5.00,000.00,024.6,023.5,000.0,033.3,026.4,012.2,0000.0,0015.75,0003.86,0001.57
2024-04-06 05:37:00,SystemResetWarning,0813.0,5.00,000.00,024.6,023.5,000.0,033.3,026.4,012.3,0000.0,0015.01,0003.78,0001.57
2024-04-06 05:38:00,SystemResetWarning,0813.0,5.00,000.00,024.6,023.5,000.0,033.3,026.4,012.4,0000.0,0014.88,0003.78,0001.57
2024-04-06 05:39:00,SystemResetWarning,0813.0,5.00,000.00,024.6,023.4,000.0,033.3,026.4,012.4,0000.0,0015.85,0003.82,0001.58
2024-04-06 05:40:00,SystemResetWarning,0813.0,5.00,000.00,024.6,023.4,000.0,033.3,026.3,012.4,0000.0,0015.90,0003.85,0001.58
2024-04-06 05:41:00,SystemResetWarning,0813.1,5.00,000.00,024.6,023.4,000.0,033.3,026.3,012.5,0000.0,0015.37,0003.80,0001.58
2024-04-06 05:42:00,SystemResetWarning,0813.1,5.00,000.00,024.6,023.4,000.0,033.3,026.4,012.5,0000.0,0015.04,0003.76,0001.58
2024-04-06 05:43:00,SystemResetWarning,0813.0,5.00,000.00,024.6,023.4,000.0,033.3,026.4,012.5,0000.0,0015.31,0003.76,0001.58
2024-04-06 05:44:00,SystemResetWarning,0813.0,5.00,000.00,024.5,023.4,000.0,033.2,026.4,012.4,0000.0,0014.38,0003.77,0001.59
2024-04-06 05:45:00,SystemResetWarning,0813.0,5.00,000.00,024.5,023.4,000.0,033.2,026.4,012.5,0000.0,0013.81,0003.71,0001.59
2024-04-06 05:46:00,SystemResetWarning,0813.0,5.00,000.00,024.5,023.4,000.0,033.2,026.3,012.6,0000.0,0013.86,0003.70,0001.60
2024-04-06 05:47:00,SystemResetWarning,0812.9,4.99,000.00,024.5,023.4,000.0,033.2,026.3,012.7,0000.0,0012.44,0003.69,0001.59
2024-04-06 05:48:00,SystemResetWarning,0813.0,5.00,000.00,024.5,023.4,000.0,033.2,026.3,012.5,0000.0,0012.29,0003.69,0001.59
2024-04-06 05:49:00,SystemResetWarning,0813.0,5.00,000.00,024.5,023.4,000.0,033.2,026.3,012.5,0000.0,0012.07,0003.69,0001.59
2024-04-06 05:50:00,SystemResetWarning,0813.0,5.00,000.00,024.5,023.4,000.0,033.2,026.3,012.5,0000.0,0011.14,0003.66,0001.58
2024-04-06 05:51:00,SystemResetWarning,0813.0,5.00,000.00,024.5,023.3,000.0,033.2,026.3,012.6,0000.0,0011.08,0003.63,0001.59
2024-04-06 05:52:00,SystemResetWarning,0813.0,5.00,000.00,024.5,023.4,000.0,033.2,026.3,012.6,0000.0,0011.81,0003.62,0001.59
2024-04-06 05:53:00,SystemResetWarning,0813.0,5.00,000.00,024.5,023.4,000.0,033.2,026.3,012.5,0000.0,0012.55,0003.63,0001.59
2024-04-06 05:54:00,SystemResetWarning,0813.0,5.00,000.00,024.5,023.3,000.0,033.2,026.3,012.5,0000.0,0012.56,0003.68,0001.59
2024-04-06 05:55:00,SystemResetWarning,0813.0,5.00,000.00,024.5,023.4,000.0,033.2,026.3,012.6,0000.0,0012.03,0003.66,0001.59
2024-04-06 05:56:00,SystemResetWarning,0812.9,5.00,000.00,024.5,023.4,000.0,033.1,026.3,012.6,0000.0,0011.88,0003.69,0001.59
2024-04-06 05:57:00,SystemResetWarning,0812.8,5.00,000.00,024.5,023.3,000.0,033.1,026.3,012.6,0000.0,0012.10,0003.69,0001.58
2024-04-06 05:58:00,SystemResetWarning,0812.8,5.00,000.00,024.4,023.3,000.0,033.1,026.3,012.6,0000.0,0012.64,0003.71,0001.59
2024-04-06 05:59:00,SystemResetWarning,0812.8,5.00,000.00,024.4,023.3,000.0,033.1,026.3,012.7,0000.0,0013.03,0003.70,0001.59
